Regional Weather Roundup
Issued by NWS

Home | Current Version | Previous Version | Graphics & Text | Print | Product List | Glossary On
Versions: 1 2 3 4 5 6 7 8 9 10 11 12 13 14 15 16 17 18 19 20 21 22 23 24 25 26 27 28 29 30 31 32 33 34 35 36 37 38 39 40 41 42 43 44 45 46 47 48 49 50
000
ASUS43 KLSX 242207
RWRMO

WEATHER SUMMARY FOR MISSOURI
NATIONAL WEATHER SERVICE SPRINGFIELD MO
500 PM CDT MON APR 24 2017

NOTE: "FAIR" INDICATES FEW OR NO CLOUDS BELOW 12,000 FEET WITH NO
       SIGNIFICANT WEATHER AND/OR OBSTRUCTIONS TO VISIBILITY.
       CURRENT SKY AND/OR WEATHER CONDITIONS ARE NOT AVAILABLE FOR
       CHILLICOTHE AND FARMINGTON.

MOZ001>031-035>038-043-044-053-054-242300-
...NORTHERN AND WESTERN MISSOURI...

CITY           SKY/WX    TMP DP  RH WIND       PRES   REMARKS
KANSAS CTY INT PTSUNNY   74  39  28 S18G31    29.61F
KANSAS C DTWN  CLOUDY    77  37  23 S22G30    29.62F
LEE`S SUMMIT   CLOUDY    76  36  23 S18G31    29.64F
ST JOSEPH      PTSUNNY   75  39  27 S23G32    29.59F
CHILLICOTHE      N/A     75  28  17 S14G28    29.63F
KIRKSVILLE     SUNNY     76  30  18 SE23      29.68F

$$
MOZ066>068-077>081-088>096-101>105-242300-
...SOUTHWEST MISSOURI...

CITY           SKY/WX    TMP DP  RH WIND       PRES   REMARKS
SPRINGFIELD    SUNNY     75  36  24 SE17      29.68F
JOPLIN         SUNNY     77  36  22 S16G24    29.65F
BRANSON        MOSUNNY   73  37  27 SE14G20   29.74F

$$
MOZ032>034-039>042-045>050-055>058-069>072-242300-
...CENTRAL MISSOURI...

CITY           SKY/WX    TMP DP  RH WIND       PRES   REMARKS
COLUMBIA       SUNNY     77  33  20 S16       29.71F
JEFFERSON CITY SUNNY     80  31  16 SE14G21   29.70F
ROLLA          SUNNY     75  35  23 S8        29.72F
SEDALIA        SUNNY     78  30  17 S18G25    29.69F
WHITEMAN AFB   PTSUNNY   75  33  21 S18G24    29.63F
OSAGE BEACH    SUNNY     78  34  20 S9        29.72F

$$
MOZ051-052-059>065-242300-
...EAST CENTRAL MISSOURI...

CITY           SKY/WX    TMP DP  RH WIND       PRES   REMARKS
ST LOUIS INTL  PTSUNNY   77  31  18 SE12      29.76F
SPIRIT OF STL  PTSUNNY   76  34  21 SE9       29.74F
ST CHARLES     SUNNY     76  33  21 SE13G21   29.74F

$$
MOZ072>076-082>087-097>100-106>115-242300-
...SOUTH CENTRAL AND SOUTHEAST MISSOURI...

CITY           SKY/WX    TMP DP  RH WIND       PRES   REMARKS
CAPE GIRARDEAU SUNNY     76  44  32 E5        29.75F
FARMINGTON     SUNNY     74  44  34 E8        29.76F
POPLAR BLUFF   SUNNY     74  53  48 E7        29.75F
WEST PLAINS    SUNNY     74  31  20 SE9       29.77F

$$



USA.gov is the U.S. government's official web portal to all federal, state and local government web resources and services.